RYR3B EIDW-EGPF

Flight info

Callsign RYR3B
Flight time N/A
Altitude 25000
Route ROTE8E ROTEV P600 BLACA BLAC1G
Aircraft B738/M-V/N

Departure

Time N/A
Airport Dublin Airport (EIDW)

Arrival

Time 2026-04-28 12:49
Airport Glasgow Airport (EGPF)
Time Latitude Longitude Altitude Speed Heading
2026-04-28 12:20 54.55305 -5.63315 24996 ft 443 kts 26°
2026-04-28 12:20 54.58016 -5.60834 24995 ft 444 kts 30°
2026-04-28 12:20 54.60613 -5.57912 24996 ft 444 kts 36°
2026-04-28 12:21 54.63027 -5.54623 24996 ft 444 kts 41°
2026-04-28 12:21 54.65358 -5.51117 24963 ft 444 kts 42°
2026-04-28 12:21 54.67629 -5.47650 24575 ft 436 kts 42°
2026-04-28 12:21 54.69875 -5.44217 24335 ft 424 kts 42°
2026-04-28 12:22 54.72046 -5.40896 24252 ft 409 kts 43°
2026-04-28 12:22 54.74134 -5.37701 24173 ft 395 kts 43°
2026-04-28 12:22 54.76165 -5.34588 24097 ft 381 kts 43°
2026-04-28 12:22 54.78118 -5.31592 23991 ft 370 kts 43°
2026-04-28 12:23 54.80032 -5.28653 23712 ft 366 kts 43°
2026-04-28 12:23 54.81934 -5.25730 23388 ft 364 kts 43°
2026-04-28 12:23 54.83817 -5.22836 23061 ft 362 kts 43°
2026-04-28 12:23 54.85704 -5.19937 22715 ft 361 kts 43°
2026-04-28 12:24 54.87622 -5.17139 22386 ft 360 kts 38°
2026-04-28 12:24 54.89695 -5.14712 22055 ft 359 kts 32°
2026-04-28 12:24 54.91904 -5.12669 21741 ft 358 kts 27°
2026-04-28 12:24 54.94140 -5.10811 21406 ft 357 kts 26°
2026-04-28 12:25 54.96375 -5.08941 21080 ft 355 kts 27°
2026-04-28 12:25 54.98597 -5.07047 20761 ft 354 kts 27°
2026-04-28 12:25 55.00794 -5.05152 20452 ft 352 kts 27°
2026-04-28 12:25 55.02982 -5.03254 20130 ft 350 kts 27°
2026-04-28 12:26 55.05162 -5.01354 19810 ft 349 kts 27°
2026-04-28 12:26 55.07298 -4.99490 19503 ft 348 kts 27°
2026-04-28 12:26 55.09461 -4.97598 19211 ft 345 kts 27°
2026-04-28 12:26 55.11629 -4.95700 18883 ft 344 kts 27°
2026-04-28 12:27 55.13745 -4.93848 18567 ft 343 kts 27°
2026-04-28 12:27 55.15874 -4.91984 18278 ft 341 kts 27°
2026-04-28 12:27 55.17993 -4.90126 17969 ft 340 kts 27°
2026-04-28 12:27 55.20106 -4.88277 17649 ft 339 kts 27°
2026-04-28 12:28 55.22204 -4.86442 17353 ft 337 kts 27°
2026-04-28 12:28 55.24311 -4.84590 17048 ft 336 kts 27°
2026-04-28 12:28 55.26389 -4.82760 16750 ft 335 kts 27°
2026-04-28 12:28 55.28467 -4.80928 16449 ft 333 kts 27°
2026-04-28 12:29 55.32231 -4.76316 15853 ft 329 kts 46°
2026-04-28 12:29 55.33783 -4.73384 15539 ft 327 kts 51°
2026-04-28 12:29 55.35219 -4.70312 15275 ft 324 kts 53°
2026-04-28 12:30 55.36596 -4.67240 14973 ft 323 kts 54°
2026-04-28 12:30 55.38000 -4.64115 14682 ft 322 kts 54°
2026-04-28 12:30 55.39383 -4.61070 14417 ft 320 kts 54°
2026-04-28 12:30 55.40770 -4.58022 14116 ft 320 kts 54°
2026-04-28 12:31 55.42157 -4.54983 13842 ft 318 kts 54°
2026-04-28 12:31 55.43540 -4.51955 13562 ft 317 kts 54°
2026-04-28 12:31 55.44918 -4.48935 13289 ft 316 kts 54°
2026-04-28 12:31 55.46297 -4.45919 13023 ft 314 kts 54°
2026-04-28 12:32 55.47664 -4.42931 12750 ft 313 kts 54°
2026-04-28 12:32 55.49025 -4.39947 12476 ft 312 kts 54°
2026-04-28 12:32 55.50406 -4.36995 12238 ft 310 kts 52°
2026-04-28 12:32 55.51768 -4.34146 12092 ft 304 kts 53°
2026-04-28 12:33 55.53101 -4.31298 11933 ft 299 kts 54°
2026-04-28 12:33 55.54408 -4.28466 11697 ft 297 kts 54°
2026-04-28 12:33 55.55704 -4.25633 11465 ft 296 kts 54°
2026-04-28 12:33 55.56995 -4.22803 11220 ft 295 kts 54°
2026-04-28 12:34 55.58277 -4.19970 10962 ft 295 kts 54°
2026-04-28 12:34 55.59555 -4.17139 10711 ft 294 kts 54°
2026-04-28 12:34 55.60811 -4.14356 10540 ft 282 kts 54°
2026-04-28 12:34 55.61995 -4.11728 10438 ft 263 kts 54°
2026-04-28 12:35 55.63091 -4.09293 10358 ft 244 kts 55°
2026-04-28 12:35 55.64112 -4.07024 10222 ft 226 kts 55°
2026-04-28 12:35 55.65055 -4.04929 10048 ft 212 kts 55°
2026-04-28 12:35 55.65967 -4.02899 9771 ft 210 kts 55°
2026-04-28 12:36 55.66875 -4.00881 9468 ft 209 kts 55°
2026-04-28 12:36 55.67779 -3.98873 9151 ft 208 kts 54°
2026-04-28 12:36 55.68818 -3.97090 8788 ft 212 kts 31°
2026-04-28 12:36 55.70243 -3.96718 8426 ft 209 kts 347°
2026-04-28 12:37 55.71394 -3.98056 8099 ft 195 kts 302°
2026-04-28 12:37 55.71722 -4.00249 7800 ft 181 kts 268°
2026-04-28 12:37 55.71648 -4.02429 7535 ft 175 kts 258°
2026-04-28 12:37 55.71482 -4.04576 7210 ft 176 kts 258°
2026-04-28 12:38 55.71374 -4.06749 6896 ft 178 kts 261°
2026-04-28 12:38 55.71338 -4.08953 6591 ft 178 kts 264°
2026-04-28 12:38 55.71387 -4.11152 6292 ft 179 kts 267°
2026-04-28 12:38 55.71413 -4.11873 6193 ft 179 kts 267°
2026-04-28 12:39 55.71665 -4.17226 5436 ft 179 kts 269°
2026-04-28 12:39 55.71781 -4.19413 5126 ft 179 kts 269°
2026-04-28 12:39 55.71902 -4.21620 4889 ft 179 kts 269°
2026-04-28 12:40 55.72026 -4.23817 4762 ft 179 kts 269°
2026-04-28 12:40 55.72149 -4.26003 4644 ft 178 kts 269°
2026-04-28 12:40 55.72274 -4.28191 4521 ft 179 kts 270°
2026-04-28 12:40 55.72401 -4.30370 4407 ft 180 kts 270°
2026-04-28 12:41 55.72529 -4.32608 4275 ft 179 kts 270°
2026-04-28 12:41 55.72656 -4.34796 4160 ft 182 kts 270°
2026-04-28 12:41 55.72785 -4.37032 4031 ft 182 kts 270°
2026-04-28 12:41 55.72916 -4.39275 3893 ft 182 kts 270°
2026-04-28 12:42 55.73045 -4.41531 3776 ft 182 kts 270°
2026-04-28 12:42 55.73175 -4.43758 3656 ft 185 kts 271°
2026-04-28 12:42 55.73309 -4.46031 3525 ft 185 kts 270°
2026-04-28 12:42 55.73439 -4.48295 3390 ft 183 kts 270°
2026-04-28 12:43 55.73566 -4.50505 3262 ft 178 kts 270°
2026-04-28 12:43 55.73691 -4.52667 3142 ft 177 kts 270°
2026-04-28 12:43 55.73817 -4.54861 3017 ft 176 kts 270°
2026-04-28 12:43 55.73942 -4.56993 2906 ft 176 kts 270°
2026-04-28 12:44 55.74066 -4.59141 2778 ft 175 kts 270°
2026-04-28 12:44 55.74191 -4.61289 2656 ft 174 kts 270°
2026-04-28 12:44 55.74315 -4.63443 2533 ft 173 kts 271°
2026-04-28 12:44 55.74586 -4.65514 2390 ft 181 kts 295°
2026-04-28 12:45 55.75602 -4.66829 2221 ft 189 kts 343°
2026-04-28 12:45 55.76834 -4.66408 2148 ft 181 kts 33°
2026-04-28 12:45 55.77444 -4.64685 2061 ft 157 kts 77°
2026-04-28 12:45 55.77692 -4.62846 2032 ft 153 kts 75°
2026-04-28 12:46 55.78108 -4.61121 1872 ft 151 kts 63°
2026-04-28 12:46 55.78704 -4.59585 1757 ft 152 kts 57°
2026-04-28 12:46 55.79353 -4.58116 1563 ft 150 kts 54°
2026-04-28 12:46 55.80042 -4.56727 1359 ft 149 kts 51°
2026-04-28 12:47 55.80745 -4.55396 1163 ft 146 kts 51°
2026-04-28 12:47 55.81434 -4.54105 1027 ft 142 kts 50°
2026-04-28 12:47 55.82116 -4.52829 798 ft 144 kts 50°
2026-04-28 12:47 55.82807 -4.51537 590 ft 144 kts 50°
2026-04-28 12:48 55.83501 -4.50241 392 ft 144 kts 50°
2026-04-28 12:48 55.84190 -4.48953 206 ft 144 kts 50°
2026-04-28 12:48 55.84872 -4.47680 250 ft 142 kts 50°
2026-04-28 12:48 55.85557 -4.46386 201 ft 144 kts 50°
2026-04-28 12:49 55.86253 -4.45092 80 ft 145 kts 50°
2026-04-28 12:49 55.86898 -4.43872 35 ft 115 kts 46°
2026-04-28 12:49 55.87330 -4.43067 34 ft 54 kts 46°
2026-04-28 12:49 55.87468 -4.42855 34 ft 8 kts 49°
2026-04-28 12:50 55.87434 -4.42827 34 ft 8 kts 227°
2026-04-28 12:50 55.87391 -4.42926 34 ft 12 kts 229°
2026-04-28 12:50 55.87328 -4.43053 34 ft 15 kts 229°
2026-04-28 12:50 55.87257 -4.43190 34 ft 9 kts 207°
2026-04-28 12:51 55.87205 -4.43132 34 ft 11 kts 101°
2026-04-28 12:51 55.87202 -4.42961 34 ft 16 kts 91°
2026-04-28 12:51 55.87198 -4.42748 34 ft 9 kts 103°
2026-04-28 12:51 55.87152 -4.42744 34 ft 8 kts 200°
2026-04-28 12:52 55.87097 -4.42780 34 ft 9 kts 200°
2026-04-28 12:52 55.87037 -4.42820 34 ft 10 kts 200°
2026-04-28 12:52 55.86972 -4.42864 34 ft 10 kts 205°
2026-04-28 12:52 55.86906 -4.42925 34 ft 11 kts 206°
2026-04-28 12:53 55.86847 -4.43007 34 ft 12 kts 252°
2026-04-28 12:53 55.86824 -4.43154 34 ft 13 kts 253°
2026-04-28 12:53 55.86797 -4.43317 34 ft 14 kts 254°
2026-04-28 12:53 55.86768 -4.43492 34 ft 15 kts 253°
2026-04-28 12:54 55.86738 -4.43680 34 ft 16 kts 254°
2026-04-28 12:54 55.86679 -4.43846 34 ft 16 kts 224°
2026-04-28 12:54 55.86621 -4.43956 34 ft 9 kts 227°
2026-04-28 12:54 55.86573 -4.44030 34 ft 9 kts 195°
2026-04-28 12:55 55.86518 -4.43990 34 ft 9 kts 149°
2026-04-28 12:55 55.86479 -4.43957 34 ft 6 kts 157°
2026-04-28 12:55 55.86442 -4.43928 34 ft 6 kts 154°
2026-04-28 12:55 55.86417 -4.43899 34 ft 4 kts 112°
2026-04-28 12:56 55.86428 -4.43855 34 ft 4 kts 53°
2026-04-28 12:56 55.86443 -4.43810 34 ft 4 kts 62°
2026-04-28 12:56 55.86456 -4.43767 34 ft 3 kts 62°
2026-04-28 12:56 55.86457 -4.43762 34 ft 0 kts 62°